Location: Cheyres
(46.8153°N, 6.7877°E)
Time: 11:58:44
(UTC+00:00)

Cosmos 1328 Rocket - Pass Details

Date: 23 September 2021
Orbit: 601 x 627 km, 82.5° (Epoch: 18 October)

Event Time Altitude Azimuth Distance (km) Brightness Sun altitude
Exits shadow 02:35:03 27° 123° (ESE) 1,190 5.2 -27.7°
Maximum altitude 02:36:19 32° 90° (E) 1,056 5.1 -27.5°
Drops below altitude 10° 02:40:10 10° 28° (NNE) 1,962 6.9 -26.9°
Sets 02:42:33 0° 18° (NNE) 2,868 7.7 -26.6°
